Tracking 27423 objects as of 8-Jun-2023
HD Live streaming from Space Station
objects crossing your sky now

NAVSTAR 64 (USA 206)

Track NAVSTAR 64 (USA 206) now!
NAVSTAR 64 (USA 206) is classified as:


NORAD ID: 35752
Int'l Code: 2009-043A
Perigee: 20,036.0 km
Apogee: 20,342.8 km
Inclination: 55.4 °
Period: 718.0 minutes
Semi major axis: 26560 km
RCS: 6.3 m2 (large)
Launch date: August 17, 2009
Source: United States (US)
Launch site: AIR FORCE EASTERN TEST RANGE (AFETR)
PRN: 5
Your satellite tracking list
Your tracking list is empty




NASA's NSSDC Master Catalog

Two Line Element Set (TLE):
1 35752U 09043A   23158.78621196 -.00000038  00000-0  00000-0 0  9999
2 35752  55.3586  71.2599 0057742  65.4164 308.6440  2.00562966101193
Source of the keplerian elements: AFSPC